Location: Zaragoza
(41.6330°N, 0.8830°W)
Time: 01:37:49
(UTC+02:00)

ISS - Pass Details

Date: 13 October 2018
Orbit: 402 x 408 km, 51.6° (Epoch: 22 October)

Event Time Altitude Azimuth Distance (km) Brightness Sun altitude
Rises 19:54:05 0° 301° (WNW) 2,337 1.0 -6.1°
Reaches altitude 10° 19:56:14 10° 294° (WNW) 1,473 0.1 -6.5°
Maximum altitude 19:59:24 44° 221° (SW) 571 -2.7 -7.1°
Drops below altitude 10° 20:02:33 10° 147° (SSE) 1,463 -1.3 -7.7°
Sets 20:04:40 0° 141° (SE) 2,318 -0.3 -8.1°
